Location: Unspecified
(0.0000°N, 0.0000°E)
Time: 17:37:13
(UTC+00:00)

SRMSAT - Pass Details

Date: 03 June 2020
Orbit: 848 x 866 km, 20.0° (Epoch: 06 July)

Event Time Altitude Azimuth Distance (km) Brightness Sun altitude
Rises 18:48:35 0° 317° (NW) 3,386 ? -11.6°
Reaches altitude 10° 18:53:38 10° 353° (N) 2,452 ? -12.8°
Maximum altitude 18:54:58 11° 7° (N) 2,401 ? -13.1°
Drops below altitude 10° 18:56:17 10° 20° (NNE) 2,453 ? -13.4°
Enters shadow 19:01:18 - 56° (ENE) 3,382 ? -14.5°
